Wetbulb
44.60 44.55 44.30 43.99 43.96 44.82 45.73 45.96 46.07 46.03 46.22 46.12 46.07 45.93 45.56 45.08 43.59 39.35 35.94 37.13 35.91 30.85 32.18 34.68 34.24 29.66 29.14 29.35 26.09 29.45 28.27 28.19 25.74 20.98 19.04 19.88 19.37 21.20 20.02 21.61 20.70 15.53 10.77 9.00 10.04 -1.17 4.74 25.24 25.54 21.28 24.76 28.18 27.76 27.55
45.09 44.76 44.35 44.50 44.67 44.93 45.06 45.30 45.54 45.41 45.54 45.68 45.82 45.82 45.98 45.23 43.90 40.40 33.96 36.16 37.04 32.38 31.77 34.92 35.50 35.85 34.83 33.74 30.30 28.28 27.89 27.65 27.55 22.94 21.38 21.10 20.86 20.42 20.21 13.67 22.43 13.14 18.62 15.87 16.96 16.32 25.52 26.94 26.37 28.33 27.71 26.78 27.70 28.11
44.91 44.43 44.36 44.43 44.43 44.51 44.55 44.66 44.74 44.95 45.02 45.20 45.37 45.25 45.27 44.27 43.23 39.63 34.38 33.51 33.02 30.34 30.39 31.09 30.59 35.56 37.50 35.68 35.50 27.85 28.17 29.73 27.94 27.54 22.81 21.55 19.65 21.59 13.81 16.57 20.26 22.32 24.50 18.60 21.02 22.35 24.23 25.75 28.51 29.15 29.53 29.36 30.73 33.41
44.35 44.11 44.06 44.08 44.25 44.32 44.34 44.54 44.34 44.26 44.55 44.85 44.83 44.92 44.65 43.95 43.19 41.10 35.06 34.62 31.45 28.07 24.48 27.42 35.27 32.26 35.99 36.26 34.19 32.53 31.32 30.96 29.02 26.79 18.48 18.10 19.79 24.28 19.41 20.72 19.52 21.45 23.32 22.06 21.59 24.34 25.03 26.46 27.50 30.70 32.67 33.72 33.72 33.57
43.93 43.78 43.78 44.07 44.36 44.52 44.46 44.05 43.89 43.98 44.25 44.79 44.74 44.58 43.85 43.20 42.23 39.65 37.72 36.32 34.47 29.40 23.60 25.91 30.12 33.01 34.12 35.12 34.03 33.95 32.06 29.07 22.51 19.40 15.27 15.83 22.05 21.94 21.91 22.15 19.69 22.46 22.17 18.63 16.77 24.69 24.25 26.14 31.66 34.47 32.15 31.07 30.35 30.42
43.88 43.77 44.16 44.37 44.30 43.92 43.80 43.80 43.80 43.86 43.71 43.82 43.79 43.61 43.10 42.04 38.77 33.51 28.93 35.22 36.28 30.75 23.62 20.44 28.39 29.23 32.18 32.88 32.82 32.01 31.79 29.38 24.83 19.29 16.19 19.33 26.71 20.88 12.75 17.89 23.32 24.40 25.63 25.90 24.41 27.88 32.64 34.01 33.58 34.10 29.90 30.02 29.87 30.99
43.87 44.02 44.17 43.83 43.57 43.57 43.50 43.23 43.00 43.31 43.30 43.76 43.33 43.24 42.55 42.24 38.24 31.07 28.33 33.64 38.13 31.11 21.16 16.41 20.17 28.10 30.92 30.09 27.90 28.37 29.71 27.07 25.93 20.72 19.61 24.56 25.15 20.59 17.42 17.97 23.41 26.48 27.14 28.28 32.59 33.73 29.17 30.95 27.94 30.27 29.72 29.30 30.26 30.94
43.91 43.79 43.62 43.53 43.46 43.19 42.83 42.54 42.57 42.77 43.31 43.35 42.90 42.58 42.01 41.33 38.01 32.63 35.05 39.10 34.44 28.66 25.96 13.09 19.43 22.65 29.07 23.72 22.62 26.86 21.31 21.88 21.11 20.95 22.43 22.14 24.48 24.89 21.39 25.10 26.74 27.89 30.07 32.35 32.96 33.84 30.91 30.84 28.19 27.28 28.43 28.06 28.43 28.09
43.40 43.27 43.26 43.05 42.96 42.83 42.70 42.68 43.00 42.92 42.97 42.04 40.74 40.02 35.26 33.49 29.51 31.64 39.70 36.85 32.36 27.99 18.33 16.62 15.39 12.49 27.09 24.18 24.07 23.66 24.02 17.08 24.45 19.24 23.24 23.78 21.45 19.42 25.30 26.19 26.39 29.01 30.16 30.57 30.23 30.11 29.09 26.50 25.92 26.71 26.87 26.09 26.57 27.69
43.09 43.12 42.87 42.64 42.46 43.01 43.63 43.65 43.27 42.68 41.58 40.07 34.63 28.30 21.44 33.73 39.53 36.49 28.84 23.59 22.51 23.64 24.17 19.64 21.81 19.05 23.30 19.99 19.43 21.21 25.70 22.16 15.99 23.24 27.23 25.26 23.22 27.04 27.74 28.78 30.49 32.30 31.25 30.30 26.36 24.89 26.21 25.87 26.24 26.91 26.62 26.96 26.76 27.91
42.93 43.10 42.86 42.48 42.73 43.14 43.07 42.83 41.81 39.73 38.29 31.09 26.51 27.54 31.02 37.98 29.37 23.34 15.36 15.33 19.17 18.46 23.71 23.67 23.26 20.04 25.86 19.01 19.35 24.29 18.80 23.04 17.23 22.10 22.01 20.71 18.82 23.88 29.69 28.97 31.80 30.15 30.09 30.01 28.79 27.56 26.83 26.73 24.27 25.36 26.55 27.42 27.50 27.38
42.81 42.72 42.52 42.40 42.73 42.68 42.32 41.46 40.23 34.59 31.72 33.63 31.83 32.52 29.65 26.06 20.16 13.92 7.76 19.17 20.69 21.10 23.30 21.39 20.72 21.33 24.03 31.96 22.60 25.42 21.89 23.32 18.13 27.08 20.85 15.63 19.67 28.52 28.30 28.89 28.70 28.88 29.17 28.63 28.24 27.23 27.03 27.08 25.37 24.08 24.54 25.73 26.89 27.38
42.89 42.63 42.41 42.36 42.29 42.37 41.95 42.09 41.32 39.82 37.14 32.01 29.05 23.73 22.72 17.79 9.30 5.84 3.53 14.64 14.09 20.02 23.67 22.24 16.70 26.11 30.40 30.90 26.18 26.03 20.58 18.20 27.89 21.41 18.61 18.69 26.25 28.99 27.70 27.77 28.16 29.03 28.91 27.72 26.86 27.14 27.35 27.06 27.54 25.54 25.21 26.28 25.86 25.55
42.69 42.49 42.27 42.42 42.27 42.08 41.93 41.58 40.88 37.09 32.18 25.73 17.22 10.33 11.81 5.03 16.45 19.40 21.16 19.71 21.61 26.31 24.49 20.52 13.98 26.13 29.46 20.70 25.05 16.12 23.70 25.41 18.38 13.60 10.44 21.70 27.71 28.27 28.28 28.56 27.96 27.73 27.86 26.41 26.54 26.92 26.79 26.38 25.98 23.93 19.37 19.74 18.59 20.36
41.93 42.17 41.83 41.58 42.17 42.09 41.69 40.81 39.57 33.72 29.34 25.91 22.83 8.25 12.35 20.81 21.67 21.42 22.57 24.97 27.43 28.97 26.49 19.36 20.27 26.23 25.68 21.00 24.12 23.02 15.66 12.09 14.35 12.29 16.57 24.90 29.17 29.22 28.13 28.30 27.65 27.68 25.71 24.88 25.54 21.92 20.56 18.80 18.92 19.28 19.70 18.57 20.69 16.21
41.54 40.21 37.23 42.32 42.21 41.98 40.47 36.97 33.69 32.07 28.64 27.02 25.99 19.38 19.82 17.43 11.55 13.28 20.68 21.22 28.09 27.77 26.88 24.70 18.90 19.61 16.27 21.59 18.77 13.74 16.43 9.80 12.89 15.76 22.90 24.89 28.89 29.50 29.77 29.39 28.61 28.11 25.99 22.86 21.19 19.92 19.01 14.14 14.63 18.53 14.83 14.83 12.16 12.84
38.49 30.81 39.20 42.11 41.93 40.83 39.76 32.01 29.84 27.25 25.96 23.99 18.45 22.47 21.09 17.14 14.26 16.18 21.51 23.54 27.32 24.16 15.41 23.21 12.70 18.62 21.92 18.63 20.51 21.10 14.21 16.30 20.31 23.20 23.79 26.92 28.28 29.05 29.69 29.45 26.12 25.47 25.99 24.17 21.43 19.62 17.71 17.64 11.44 12.81 14.72 17.37 16.19 20.04
32.07 34.96 40.30 41.74 38.39 37.39 34.82 33.42 27.86 27.14 23.83 25.41 21.95 16.55 20.35 20.35 18.80 18.75 21.47 24.98 25.93 24.40 25.45 23.52 23.95 21.31 14.06 18.35 16.41 18.05 19.36 20.80 21.26 23.08 23.54 26.08 28.44 29.24 29.79 29.23 29.16 26.61 26.53 26.47 25.99 24.78 19.32 15.46 19.04 20.49 18.97 19.78 24.13 16.44
35.21 37.48 41.95 41.18 36.00 31.38 29.48 31.39 31.02 24.08 23.59 23.45 21.94 21.43 21.74 20.26 22.64 23.81 23.99 25.16 26.94 27.86 26.92 23.80 21.64 20.47 20.07 21.22 18.83 19.63 19.23 20.82 20.69 21.44 23.25 25.65 27.70 29.23 28.71 28.42 28.46 29.00 27.81 26.57 26.44 25.46 23.89 23.67 22.57 20.21 19.57 24.40 22.97 16.36
40.38 41.25 41.15 40.37 37.33 29.37 27.57 28.75 33.54 26.97 23.79 22.61 23.94 20.56 22.16 21.04 22.45 18.79 22.12 24.67 26.41 24.99 24.06 24.11 20.77 20.57 20.81 21.92 22.81 22.85 22.74 25.00 25.54 24.60 20.82 24.85 26.86 27.16 27.02 26.93 26.46 26.77 25.22 26.39 26.47 23.61 23.68 23.33 21.92 21.42 23.83 21.35 17.21 13.38
37.55 38.26 40.54 38.77 35.75 34.12 29.13 27.66 27.96 27.36 26.38 23.60 24.26 24.00 20.50 23.66 21.61 19.78 21.76 25.83 24.86 23.56 20.64 23.82 20.49 22.28 22.04 24.63 28.56 24.21 24.15 22.82 19.85 20.29 18.97 16.04 23.16 25.57 24.63 24.98 26.57 26.10 25.50 24.82 23.47 22.43 20.14 20.46 21.16 20.65 12.19 6.59 7.25 9.54
33.91 39.69 34.58 36.92 32.38 31.25 29.60 28.28 26.32 27.57 26.16 24.34 23.52 25.71 19.11 12.99 13.36 17.67 25.30 20.17 22.11 23.84 24.94 23.08 22.19 24.07 25.38 23.94 23.34 22.21 22.23 24.21 25.93 25.09 23.95 23.89 18.65 19.76 20.88 21.67 22.01 20.03 20.63 20.46 21.44 19.23 18.58 18.27 17.62 16.30 11.99 6.70 8.54 10.34
38.55 36.93 33.83 33.13 27.31 25.28 21.11 27.08 24.79 25.39 18.01 18.88 24.12 20.70 17.07 18.74 23.26 25.96 17.59 23.02 24.43 25.77 29.51 28.56 27.05 26.69 25.98 26.30 26.17 25.47 25.34 25.34 22.80 22.38 23.21 21.49 21.98 22.02 21.08 20.70 21.48 18.10 17.47 16.64 17.68 16.58 14.55 12.35 11.98 5.85 5.79 3.98 -1.09 2.52
38.05 31.83 28.09 26.00 25.17 15.18 24.26 20.52 26.69 25.35 21.20 18.09 16.25 13.80 17.64 17.30 23.41 19.35 19.40 22.09 24.13 25.36 27.00 26.56 26.21 24.40 24.70 24.40 21.89 20.75 22.23 23.40 21.86 21.22 21.25 19.64 17.21 15.72 17.79 17.65 19.40 18.20 17.45 16.35 15.51 11.76 10.35 5.21 3.66 4.71 0.83 -5.60 -2.35 -2.01
27.24 24.91 26.33 21.77 25.62 19.21 17.49 15.77 16.88 19.12 10.46 14.06 14.83 9.05 14.45 21.03 12.66 12.10 17.18 20.98 23.53 24.54 19.35 21.72 21.93 21.45 19.76 19.30 18.73 19.50 20.84 20.88 18.98 17.99 17.87 18.30 16.26 14.06 12.92 14.84 15.50 16.81 18.10 6.57 4.21 5.98 8.31 4.91 3.21 2.55 4.77 -0.16 3.86 3.43
20.82 21.48 22.82 21.20 18.62 19.57 18.03 15.25 15.79 12.17 10.10 7.73 11.87 17.39 16.59 11.02 11.67 12.35 17.93 16.63 15.91 19.77 18.55 18.70 17.36 17.14 17.16 19.47 16.96 19.32 19.29 19.96 18.55 13.60 13.76 16.98 14.71 12.27 5.39 4.68 4.59 7.70 15.30 9.26 2.32 5.72 8.53 8.79 9.24 8.58 6.48 5.07 2.39 0.86
20.11 19.29 24.91 26.97 24.79 24.00 18.27 17.49 20.83 14.69 8.69 8.12 12.25 9.10 13.46 11.08 7.31 16.10 19.92 16.22 17.85 18.66 21.97 22.82 21.54 19.64 19.78 19.28 18.62 15.80 14.76 15.89 16.00 15.16 17.37 17.30 17.45 18.10 12.00 3.08 3.97 9.15 12.54 8.58 2.35 0.52 6.44 7.82 7.44 7.10 7.08 7.32 6.07 2.53
24.55 24.19 19.70 22.26 22.17 22.94 16.65 15.72 15.93 15.40 15.69 20.53 15.87 9.16 9.93 10.62 12.87 18.69 19.73 19.81 20.11 22.07 22.62 22.39 23.36 22.16 19.16 16.06 13.00 10.74 6.84 3.92 7.12 9.22 10.38 10.66 10.26 8.18 7.61 6.64 5.41 12.55 9.26 5.52 4.15 4.05 4.81 6.14 6.66 6.94 6.75 5.82 6.16 7.52
23.90 25.67 23.37 20.29 18.20 21.23 20.48 18.06 18.55 21.48 22.47 20.57 14.88 12.30 14.16 19.87 18.08 19.05 19.18 19.58 21.28 22.93 22.02 19.75 8.96 7.81 6.89 4.84 1.79 2.15 3.15 3.56 2.97 0.17 -2.88 -2.45 -5.60 0.85 0.79 1.08 2.70 3.18 3.42 3.77 4.88 9.37 8.41 8.19 9.12 9.32 9.00 8.95 9.13 8.60
21.56 26.45 22.42 20.76 19.74 19.22 20.47 23.68 20.57 20.80 21.83 21.93 20.72 19.76 19.17 18.98 15.99 15.79 17.51 20.74 21.51 22.69 14.93 8.07 6.33 9.35 7.61 7.30 1.83 -0.15 -5.09 -5.60 0.14 1.98 -1.83 -2.00 1.23 0.18 -6.15 -3.47 -1.28 0.60 0.01 -0.90 3.40 5.08 8.02 8.16 8.21 7.08 6.56 6.52 6.39 5.77
25.23 24.96 22.31 21.46 19.87 18.95 20.68 17.44 16.93 17.19 14.28 14.67 11.71 15.28 15.77 11.03 11.55 11.60 13.79 12.39 8.84 4.39 5.34 -0.34 -2.16 -3.97 0.38 -7.23 -3.79 -2.16 1.28 -3.26 -7.78 -0.70 1.40 1.05 -1.61 -2.78 -1.66 -0.64 -0.76 -0.13 2.83 3.61 5.02 5.58 5.35 4.47 3.89 3.53 3.65 3.97 5.08 5.69
20.99 22.01 19.02 15.08 15.51 14.34 14.30 12.06 13.43 14.45 6.10 15.61 9.42 6.08 6.84 8.19 10.25 13.73 7.47 0.82 -0.74 0.74 0.49 1.18 -0.60 0.66 1.07 -3.12 -4.17 0.10 6.08 4.96 1.86 -2.66 -2.86 -5.28 -2.84 -1.49 -0.76 0.02 -0.16 1.08 3.21 3.22 3.54 3.67 3.25 2.60 2.52 2.65 2.83 2.56 3.01 3.16
13.49 9.43 9.40 15.57 16.87 13.42 12.33 13.06 10.75 8.55 2.52 3.55 3.10 3.05 8.40 12.98 13.85 10.76 3.03 -2.88 2.03 3.21 2.67 3.14 0.36 -3.98 -1.87 2.43 3.92 6.87 3.42 -4.49 -5.20 0.92 3.28 2.92 2.54 3.49 -1.43 -2.58 -2.30 -1.74 0.55 1.21 1.26 1.56 1.22 1.02 0.30 0.19 -0.20 -0.22 -0.06 -0.26
MSLP
992.02 992.39 992.86 993.33 993.95 994.55 995.34 996.04 996.83 997.55 998.07 998.83 999.64 1000.09 1000.05 1000.18 1000.77 1001.29 1003.83 1003.26 1003.06 1005.78 1007.39 1006.91 1007.31 1008.41 1009.23 1009.99 1011.33 1012.48 1013.00 1013.95 1014.95 1015.73 1016.63 1017.11 1017.04 1016.98 1017.10 1017.30 1017.91 1018.65 1019.99 1021.08 1021.23 1020.99 1019.27 1016.71 1016.56 1016.75 1016.11 1015.13 1015.31 1014.70
994.15 994.52 994.91 995.37 995.81 996.26 996.81 997.33 997.88 998.49 999.14 999.80 1000.20 1000.52 1000.75 1001.07 1001.41 1001.61 1003.21 1003.64 1003.77 1005.35 1008.01 1007.91 1008.24 1008.66 1008.49 1009.46 1010.85 1012.44 1012.95 1013.77 1014.53 1015.60 1016.78 1017.17 1017.88 1017.70 1017.53 1017.98 1017.86 1018.54 1018.72 1019.27 1019.29 1018.10 1017.03 1016.37 1016.29 1015.96 1015.70 1015.20 1014.84 1014.43
996.34 996.59 996.93 997.29 997.63 998.07 998.58 999.05 999.49 999.93 1000.45 1000.82 1001.30 1001.62 1001.69 1001.90 1002.13 1002.24 1004.06 1004.71 1004.71 1006.86 1008.29 1008.63 1009.42 1009.44 1009.10 1009.67 1010.23 1011.59 1013.15 1013.73 1014.53 1015.04 1016.87 1017.72 1017.74 1017.81 1018.08 1018.04 1017.85 1017.87 1017.88 1018.21 1018.16 1017.03 1016.49 1016.07 1015.65 1015.37 1015.30 1014.94 1014.40 1014.08
998.41 998.63 998.86 999.11 999.39 999.72 1000.11 1000.46 1000.78 1001.10 1001.48 1001.92 1002.36 1002.68 1002.95 1003.13 1003.19 1003.08 1004.49 1005.37 1005.53 1007.62 1009.83 1010.89 1010.16 1010.28 1010.33 1010.34 1010.86 1011.45 1012.68 1013.95 1014.94 1015.64 1016.86 1017.77 1018.09 1017.66 1018.00 1017.64 1017.69 1017.38 1017.60 1017.42 1017.09 1016.40 1015.84 1015.46 1015.41 1015.23 1014.76 1014.48 1014.07 1013.60
1000.07 1000.29 1000.50 1000.73 1000.98 1001.24 1001.54 1001.84 1002.21 1002.59 1003.00 1003.41 1003.77 1003.95 1004.21 1004.34 1004.36 1004.38 1005.09 1006.25 1006.23 1007.08 1010.14 1011.50 1011.37 1011.48 1011.17 1011.22 1011.79 1012.26 1013.00 1014.18 1015.57 1016.90 1017.85 1018.26 1017.87 1017.93 1017.97 1017.87 1017.26 1016.77 1016.49 1016.69 1016.21 1015.69 1015.73 1015.39 1015.12 1014.85 1014.69 1014.37 1013.98 1013.47
1001.50 1001.66 1001.88 1002.13 1002.36 1002.63 1002.90 1003.11 1003.36 1003.70 1004.02 1004.32 1004.55 1004.65 1004.58 1004.55 1004.47 1004.65 1006.08 1006.86 1007.16 1007.52 1009.59 1012.25 1012.77 1012.40 1011.94 1012.03 1012.57 1013.14 1013.68 1014.74 1015.98 1017.22 1017.84 1017.71 1017.24 1017.31 1018.04 1017.48 1016.03 1015.62 1015.26 1015.20 1015.38 1015.23 1015.29 1015.07 1014.95 1014.86 1014.72 1014.37 1013.83 1013.25
1002.84 1002.90 1003.09 1003.38 1003.64 1003.90 1004.15 1004.44 1004.74 1005.00 1005.17 1005.30 1005.44 1005.53 1005.51 1005.31 1005.35 1007.00 1008.41 1008.62 1007.99 1008.31 1010.58 1013.44 1013.45 1012.82 1012.60 1012.78 1013.60 1014.27 1014.60 1015.43 1016.05 1017.19 1017.46 1017.24 1017.00 1017.01 1017.15 1016.25 1015.05 1014.72 1014.72 1014.71 1014.62 1014.86 1014.97 1014.86 1014.95 1014.89 1014.72 1014.20 1013.74 1013.11
1004.15 1004.31 1004.50 1004.71 1004.92 1005.15 1005.41 1005.66 1005.91 1006.11 1006.18 1006.27 1006.42 1006.51 1006.57 1006.73 1007.20 1008.31 1009.05 1008.62 1008.71 1009.84 1011.22 1013.32 1013.95 1013.69 1013.12 1013.62 1014.34 1014.75 1015.39 1015.96 1016.43 1016.74 1016.90 1016.75 1016.80 1016.50 1015.79 1014.50 1013.95 1013.90 1014.08 1014.25 1014.25 1014.53 1014.82 1014.88 1014.94 1014.80 1014.64 1014.19 1013.42 1012.70
1005.12 1005.32 1005.52 1005.65 1005.90 1006.19 1006.34 1006.44 1006.58 1006.72 1006.82 1006.94 1007.01 1007.11 1007.37 1008.17 1009.19 1009.97 1009.51 1009.25 1009.44 1010.51 1012.26 1013.42 1014.05 1014.59 1013.49 1014.20 1014.62 1015.21 1015.54 1016.45 1016.42 1016.35 1016.28 1016.10 1015.84 1015.10 1013.51 1013.44 1013.48 1013.44 1013.66 1013.75 1014.12 1014.44 1014.64 1014.82 1014.82 1014.75 1014.40 1013.89 1013.39 1012.53
1005.98 1006.14 1006.34 1006.49 1006.67 1006.78 1006.88 1007.01 1007.03 1007.28 1007.59 1007.52 1007.52 1008.43 1009.85 1010.50 1010.09 1009.89 1010.00 1010.43 1010.96 1012.16 1012.89 1014.04 1014.34 1014.38 1014.18 1014.87 1015.30 1015.78 1015.94 1016.13 1016.28 1015.54 1015.37 1015.22 1014.18 1012.90 1012.32 1012.34 1012.44 1012.74 1013.17 1013.65 1014.08 1014.30 1014.49 1014.77 1014.71 1014.48 1014.29 1013.91 1013.36 1012.60
1006.98 1007.16 1007.29 1007.41 1007.58 1007.76 1007.88 1007.91 1008.00 1008.07 1007.99 1008.46 1009.35 1010.57 1010.96 1010.64 1010.83 1011.58 1012.54 1012.95 1013.30 1013.75 1013.90 1014.17 1014.18 1014.34 1014.46 1014.97 1015.33 1015.59 1015.63 1015.52 1015.26 1014.81 1014.81 1014.32 1013.33 1011.85 1011.33 1011.56 1011.96 1012.45 1012.95 1013.27 1013.62 1013.98 1014.43 1014.66 1014.66 1014.49 1014.00 1013.54 1013.03 1012.53
1007.58 1007.77 1007.97 1008.16 1008.33 1008.48 1008.61 1008.66 1008.70 1008.95 1009.46 1009.60 1010.10 1011.01 1011.48 1011.98 1012.70 1013.25 1014.35 1014.12 1013.96 1013.98 1014.09 1014.19 1014.39 1014.48 1014.59 1014.43 1014.83 1015.07 1015.01 1015.07 1014.59 1014.33 1014.39 1013.58 1012.18 1011.42 1011.40 1011.60 1011.88 1012.18 1012.59 1013.07 1013.41 1013.86 1014.02 1014.08 1014.06 1014.08 1013.83 1013.42 1013.02 1012.54
1008.18 1008.37 1008.59 1008.79 1008.91 1009.00 1009.09 1009.18 1009.25 1009.31 1009.46 1009.86 1010.45 1011.75 1012.40 1013.56 1014.00 1014.24 1014.64 1014.29 1013.99 1013.72 1013.86 1014.13 1014.24 1014.25 1014.15 1014.18 1014.40 1014.46 1014.49 1014.37 1014.18 1014.14 1013.48 1012.28 1011.50 1011.28 1011.37 1011.49 1011.81 1012.07 1012.42 1012.80 1013.18 1013.40 1013.48 1013.61 1013.65 1013.69 1013.65 1013.30 1013.03 1012.62
1008.74 1008.94 1009.12 1009.27 1009.39 1009.50 1009.58 1009.59 1009.52 1009.59 1009.97 1011.14 1012.07 1013.12 1013.95 1014.30 1014.22 1013.94 1013.74 1013.59 1013.32 1013.30 1013.51 1013.85 1014.07 1014.12 1013.86 1014.15 1014.07 1014.38 1014.09 1014.08 1013.96 1013.85 1013.01 1011.74 1011.20 1011.06 1011.14 1011.27 1011.65 1011.89 1012.19 1012.47 1012.70 1012.91 1013.20 1013.39 1013.43 1013.45 1013.31 1013.17 1012.99 1012.60
1009.08 1009.27 1009.41 1009.58 1009.69 1009.82 1009.89 1009.92 1009.93 1010.23 1011.08 1012.01 1012.56 1013.53 1014.24 1013.93 1013.92 1013.73 1013.50 1013.19 1012.78 1012.74 1013.18 1013.80 1014.14 1014.06 1013.80 1013.78 1013.76 1013.93 1014.34 1014.13 1013.79 1013.01 1012.08 1011.09 1010.80 1010.80 1010.82 1010.87 1011.18 1011.50 1011.77 1012.04 1012.33 1012.79 1012.97 1013.10 1013.33 1013.19 1013.00 1013.00 1012.84 1012.50
1009.32 1009.56 1009.80 1009.83 1009.97 1010.12 1010.26 1010.40 1010.62 1011.04 1011.60 1012.20 1012.77 1013.44 1013.91 1014.31 1014.44 1014.15 1013.79 1013.27 1012.64 1012.75 1013.03 1013.41 1013.75 1013.87 1013.61 1013.43 1013.55 1013.48 1013.72 1013.33 1012.37 1011.78 1011.09 1010.74 1010.72 1010.55 1010.52 1010.53 1010.69 1010.82 1011.21 1011.51 1011.82 1012.16 1012.39 1012.71 1012.85 1012.75 1012.65 1012.59 1012.56 1012.42
1009.62 1009.92 1009.86 1010.06 1010.27 1010.51 1010.62 1011.05 1011.46 1011.94 1012.30 1012.71 1012.92 1013.06 1013.53 1014.02 1013.98 1013.77 1013.20 1012.86 1012.43 1012.77 1013.21 1013.40 1013.55 1013.34 1013.23 1013.20 1012.99 1012.70 1012.37 1011.78 1011.15 1011.23 1010.77 1010.42 1010.41 1010.17 1009.98 1010.04 1010.16 1010.29 1010.53 1010.85 1011.22 1011.59 1011.86 1011.84 1012.09 1012.34 1012.45 1011.82 1011.89 1011.52
1010.23 1010.14 1009.99 1010.18 1010.53 1010.86 1011.09 1011.48 1012.02 1012.25 1012.34 1012.42 1012.91 1012.83 1013.06 1013.08 1013.09 1013.03 1012.85 1012.44 1012.51 1012.61 1012.85 1012.84 1012.68 1012.83 1012.53 1012.17 1011.88 1011.51 1011.34 1011.10 1010.98 1010.82 1010.68 1010.42 1010.21 1009.94 1009.73 1009.57 1009.37 1009.56 1009.86 1010.15 1010.55 1010.96 1011.24 1011.43 1011.68 1011.60 1011.36 1011.34 1011.48 1011.47
1010.02 1010.00 1010.08 1010.40 1010.66 1011.22 1011.62 1011.96 1012.10 1012.07 1011.90 1012.08 1012.22 1012.38 1012.46 1012.29 1012.00 1011.86 1011.77 1011.77 1011.76 1011.81 1012.10 1012.44 1012.43 1012.18 1011.57 1010.97 1011.03 1011.06 1011.19 1011.26 1011.36 1011.13 1010.72 1010.39 1010.13 1010.01 1010.00 1009.89 1009.81 1009.76 1009.79 1010.04 1010.30 1010.53 1010.75 1010.81 1010.74 1010.84 1010.96 1011.17 1011.33 1011.39
1009.75 1009.84 1010.15 1010.54 1010.81 1011.47 1011.80 1011.96 1012.02 1011.96 1011.76 1011.61 1011.77 1011.94 1011.84 1011.60 1011.22 1011.14 1011.18 1011.44 1011.68 1011.78 1011.90 1011.51 1011.10 1010.55 1010.58 1010.44 1010.51 1010.78 1010.95 1011.06 1011.13 1011.15 1011.26 1011.11 1010.85 1010.67 1010.51 1010.24 1010.21 1010.25 1010.26 1010.22 1010.23 1010.27 1010.29 1010.33 1010.44 1010.57 1010.59 1011.03 1011.34 1011.35
1009.77 1009.98 1010.30 1010.67 1011.16 1011.48 1011.81 1011.70 1011.61 1011.53 1011.25 1011.38 1011.13 1011.31 1011.33 1011.11 1010.99 1010.99 1010.85 1010.84 1011.37 1011.15 1010.69 1009.86 1009.85 1009.89 1009.91 1010.17 1010.29 1010.70 1010.95 1010.98 1011.18 1011.27 1011.27 1011.11 1010.63 1010.41 1010.21 1010.07 1010.01 1009.89 1009.96 1010.06 1010.22 1010.27 1010.48 1010.65 1010.83 1011.04 1011.45 1011.75 1011.37 1011.15
1009.42 1009.79 1010.32 1010.53 1010.95 1011.47 1011.53 1011.28 1011.28 1011.12 1011.28 1010.97 1011.01 1010.87 1011.06 1011.07 1010.69 1010.35 1010.07 1010.30 1010.09 1009.27 1008.87 1008.85 1009.13 1009.38 1010.04 1010.50 1010.74 1010.80 1010.87 1010.89 1010.81 1010.90 1010.89 1010.95 1010.93 1010.78 1010.71 1010.78 1010.66 1010.78 1010.77 1010.79 1010.86 1011.13 1011.35 1011.52 1011.61 1011.67 1011.75 1011.72 1011.45 1011.10
1009.33 1009.86 1010.21 1010.50 1011.04 1011.31 1011.21 1011.09 1011.33 1010.96 1011.15 1011.03 1010.88 1010.92 1010.86 1010.54 1009.83 1009.66 1009.71 1009.18 1008.56 1008.05 1008.08 1008.56 1008.96 1009.29 1009.69 1010.30 1010.60 1010.63 1010.66 1010.74 1010.90 1011.01 1011.03 1011.10 1011.15 1011.19 1011.19 1011.19 1011.16 1011.14 1011.25 1011.52 1011.63 1011.78 1011.92 1011.91 1011.94 1011.99 1011.86 1011.77 1011.64 1011.24
1009.38 1009.55 1009.80 1010.03 1010.29 1010.78 1010.88 1011.02 1010.91 1010.87 1010.91 1011.16 1011.21 1011.08 1010.58 1010.04 1009.62 1009.64 1009.39 1008.48 1007.80 1007.95 1008.34 1008.69 1009.16 1009.69 1010.08 1010.33 1010.42 1010.43 1010.56 1010.69 1010.85 1011.01 1011.19 1011.31 1011.46 1011.51 1011.50 1011.57 1011.59 1011.73 1011.78 1011.78 1011.89 1012.03 1012.00 1012.10 1011.84 1011.81 1011.74 1011.77 1011.37 1010.96
1009.09 1009.07 1009.23 1009.06 1009.41 1010.22 1010.48 1010.64 1010.71 1010.94 1011.29 1011.10 1011.34 1010.96 1010.19 1009.75 1009.80 1009.63 1008.88 1007.97 1008.00 1008.24 1008.63 1008.89 1009.27 1009.59 1009.97 1010.08 1010.22 1010.45 1010.63 1010.84 1011.09 1011.22 1011.32 1011.48 1011.55 1011.67 1011.79 1011.91 1011.99 1011.91 1011.88 1012.25 1012.39 1012.44 1012.20 1011.75 1011.58 1011.45 1011.19 1011.00 1010.69 1010.24
1007.99 1007.60 1007.61 1007.62 1008.29 1008.89 1009.23 1009.94 1010.46 1010.63 1010.75 1011.18 1010.94 1010.16 1009.89 1010.08 1010.17 1009.26 1008.22 1007.95 1008.03 1008.25 1008.57 1008.83 1009.16 1009.55 1009.75 1009.92 1010.18 1010.58 1010.78 1010.91 1011.17 1011.54 1011.52 1011.48 1011.62 1011.78 1012.18 1012.41 1012.39 1012.15 1011.87 1012.16 1012.22 1012.25 1011.73 1011.36 1011.02 1010.63 1010.31 1010.10 1009.85 1009.48
1006.39 1006.14 1006.25 1006.52 1006.97 1007.51 1008.30 1008.81 1009.19 1009.75 1010.34 1010.24 1009.94 1010.11 1010.06 1010.24 1009.63 1008.22 1007.59 1007.58 1007.62 1007.50 1007.50 1007.94 1008.47 1009.02 1009.36 1009.82 1010.18 1010.53 1010.74 1011.07 1011.40 1011.52 1011.47 1011.49 1011.46 1011.43 1011.82 1012.24 1012.50 1012.03 1011.72 1011.86 1011.80 1011.64 1011.35 1010.74 1010.27 1009.83 1009.32 1008.86 1008.69 1008.47
1004.16 1004.46 1005.15 1006.04 1006.45 1006.68 1007.44 1008.00 1008.33 1008.67 1008.46 1008.46 1008.93 1009.29 1009.06 1008.73 1007.97 1006.91 1006.66 1006.42 1006.64 1006.90 1007.31 1007.86 1008.30 1008.72 1009.26 1009.73 1010.11 1010.74 1011.29 1011.52 1011.72 1011.80 1011.67 1011.74 1011.73 1011.80 1011.78 1011.85 1011.78 1011.61 1011.51 1011.36 1011.26 1010.98 1010.51 1009.90 1009.30 1008.76 1008.32 1007.79 1007.38 1007.07
1003.27 1003.66 1004.54 1005.39 1006.04 1006.34 1006.46 1006.59 1006.67 1006.39 1006.15 1006.90 1007.55 1007.36 1007.05 1006.70 1006.32 1006.20 1006.32 1006.32 1006.60 1007.22 1008.04 1008.63 1009.38 1009.64 1010.03 1010.32 1010.66 1011.06 1011.36 1011.80 1012.44 1012.47 1012.78 1012.66 1012.60 1012.58 1011.96 1011.86 1011.74 1011.54 1011.30 1010.98 1010.43 1009.96 1009.42 1008.79 1008.12 1007.59 1007.16 1006.73 1006.22 1005.89
1002.65 1002.97 1003.90 1004.50 1005.14 1005.00 1004.63 1004.65 1004.89 1004.62 1004.93 1005.23 1005.48 1005.91 1006.03 1006.05 1006.01 1006.01 1006.26 1006.72 1007.30 1007.82 1008.32 1008.89 1009.45 1010.11 1010.62 1010.95 1011.43 1011.79 1011.71 1011.83 1011.97 1012.50 1012.58 1012.45 1012.42 1012.19 1012.22 1011.99 1011.62 1011.00 1010.57 1010.31 1009.66 1008.98 1008.42 1007.83 1007.32 1006.78 1006.36 1005.83 1005.34 1004.93
1001.94 1002.67 1003.33 1003.90 1004.21 1004.10 1004.20 1004.43 1004.87 1005.21 1005.58 1006.01 1006.20 1006.56 1006.80 1006.86 1006.47 1006.58 1006.85 1007.12 1007.76 1008.46 1008.96 1009.61 1009.87 1010.23 1010.71 1011.07 1011.50 1012.28 1012.22 1011.81 1011.87 1012.03 1012.09 1012.30 1012.17 1011.90 1011.61 1011.15 1010.72 1010.38 1009.95 1009.51 1008.99 1008.35 1007.73 1007.24 1006.78 1006.19 1005.63 1005.03 1004.48 1004.08
1001.89 1002.36 1003.07 1003.82 1004.28 1004.53 1004.81 1005.07 1005.60 1006.12 1006.86 1007.11 1007.32 1007.41 1007.53 1007.70 1007.73 1007.36 1007.76 1008.03 1008.66 1008.98 1008.93 1009.24 1009.73 1010.00 1010.23 1010.29 1010.62 1010.91 1011.15 1011.53 1011.91 1011.72 1011.71 1011.81 1011.60 1011.11 1010.81 1010.51 1010.18 1009.79 1009.26 1008.85 1008.34 1007.74 1007.16 1006.65 1006.09 1005.57 1004.99 1004.37 1003.83 1003.37
1002.79 1003.05 1003.25 1003.75 1004.50 1005.00 1005.35 1005.58 1006.32 1007.13 1007.84 1008.10 1008.32 1008.42 1008.35 1008.35 1008.36 1007.92 1008.01 1008.30 1008.81 1008.57 1008.90 1009.12 1009.17 1009.55 1009.79 1009.94 1010.21 1010.60 1010.92 1011.06 1011.19 1011.25 1011.18 1011.05 1010.87 1010.60 1010.33 1009.99 1009.62 1009.26 1008.85 1008.33 1007.78 1007.22 1006.57 1006.07 1005.64 1005.17 1004.66 1004.07 1003.44 1002.87
Wind_Speed
36 35 35 35 34 32 30 30 29 26 24 23 20 18 16 14 10 6 1 3 5 5 3 5 4 6 4 4 6 5 5 2 2 4 4 4 3 4 3 3 5 6 5 3 3 3 8 3 2 4 6 15 13 14
32 31 31 30 29 29 29 29 28 27 26 24 21 19 16 14 11 5 5 3 4 8 4 2 6 4 5 6 8 3 3 3 4 5 1 3 2 2 4 3 2 2 8 5 8 8 5 4 7 9 7 13 12 12
29 29 29 28 28 27 27 26 26 27 25 24 22 21 20 19 18 10 4 2 5 5 6 7 6 7 7 6 2 6 1 4 3 2 4 2 3 3 4 5 3 3 4 4 1 3 9 6 9 7 7 13 13 13
27 27 26 26 26 26 25 25 25 25 24 23 22 22 22 23 25 16 6 3 6 5 6 2 3 5 4 5 7 5 8 5 6 3 4 3 3 3 3 2 4 5 5 5 5 9 7 6 4 5 12 14 16 16
25 25 25 25 25 25 24 23 23 22 22 21 20 20 20 19 20 14 8 6 4 7 6 3 1 5 3 5 9 9 9 6 3 4 4 2 2 3 1 2 4 6 6 5 6 7 6 9 6 12 13 13 16 16
23 23 23 23 23 23 22 22 22 21 20 19 17 15 13 11 8 5 6 6 7 4 7 4 3 4 6 5 7 6 5 4 4 4 3 1 2 4 3 3 5 6 4 5 5 1 8 11 12 9 9 15 16 17
20 21 21 21 21 21 20 19 19 18 17 17 19 21 23 23 11 7 4 3 6 4 6 4 2 3 2 4 3 3 4 3 4 2 1 4 2 5 3 5 4 6 6 6 6 4 4 2 6 11 10 13 15 16
19 19 19 19 19 18 18 17 16 16 16 17 16 14 13 13 10 7 5 8 4 6 4 5 1 3 4 2 3 1 3 3 2 3 2 3 2 2 6 5 7 6 6 6 4 3 5 5 6 7 8 11 15 16
17 17 17 17 16 15 14 14 14 15 15 12 10 8 6 7 5 1 3 7 4 5 5 3 4 3 4 2 2 3 3 2 0 1 3 4 3 7 7 7 6 7 6 3 2 4 5 5 7 7 9 11 12 15
14 15 14 14 14 14 14 14 14 13 9 6 6 6 5 2 3 6 8 6 7 5 4 3 1 2 4 2 3 3 2 2 2 4 4 4 5 8 7 8 6 7 7 6 2 4 2 5 6 9 9 9 10 13
14 14 14 13 13 13 12 12 9 7 9 5 4 3 2 6 4 4 4 5 2 4 2 1 2 3 2 3 2 2 3 2 2 3 4 3 4 4 5 8 7 7 7 6 5 3 5 6 6 8 10 10 10 12
14 13 13 12 11 12 11 8 6 5 1 3 5 4 2 4 4 6 2 2 1 2 1 3 3 4 1 2 3 2 3 2 4 4 2 3 5 4 6 6 7 7 7 7 6 6 6 5 5 6 7 9 10 11
11 11 11 10 9 9 8 9 12 8 5 3 5 4 3 3 8 5 1 3 2 1 3 2 0 3 1 2 2 2 3 4 3 3 4 5 2 4 6 4 5 6 7 5 6 5 5 5 5 3 6 7 8 9
10 10 9 8 7 6 6 6 8 6 5 4 4 3 3 3 2 3 3 3 4 3 2 2 1 2 2 2 2 3 3 1 2 3 6 3 5 5 6 5 5 8 8 7 7 5 6 6 5 5 5 5 5 7
9 8 8 5 6 6 6 6 7 4 3 2 3 2 3 3 1 1 1 1 2 2 3 2 2 2 2 1 2 2 1 4 6 6 4 4 6 6 7 6 7 7 7 6 4 5 6 5 5 6 6 5 5 6
9 6 2 7 8 7 7 6 4 2 2 2 1 1 1 3 4 2 1 2 2 3 3 3 2 2 4 3 3 7 4 7 6 4 4 3 5 6 7 6 7 7 6 6 6 5 5 5 6 6 4 5 5 4
5 1 4 7 8 8 6 4 3 4 2 2 3 1 3 2 5 4 3 3 2 3 1 2 3 8 1 2 4 5 6 5 4 3 3 5 6 8 8 7 7 7 7 7 4 5 6 5 2 2 5 6 5 6
0 2 7 11 7 2 2 3 3 1 4 4 3 3 2 2 3 2 3 3 4 3 3 4 2 3 5 5 4 4 3 3 2 2 2 4 6 7 7 10 9 7 7 6 6 5 3 3 5 5 5 4 5 4
4 2 13 12 5 4 2 1 1 3 4 2 2 2 3 3 3 1 2 3 3 2 3 1 4 4 5 3 3 3 2 2 2 3 3 5 6 6 7 5 5 3 1 1 2 3 3 5 4 2 2 4 4 2
2 7 13 11 4 2 2 2 2 3 3 4 1 2 3 4 2 2 3 4 4 3 3 5 6 4 4 3 3 3 1 1 1 4 2 3 3 5 5 4 3 4 3 3 3 3 3 3 2 1 1 1 1 3
5 4 10 6 1 1 1 2 3 4 3 3 2 2 4 0 2 2 3 4 3 4 4 5 4 4 2 1 2 3 3 3 2 3 3 3 4 3 3 3 4 3 3 3 4 5 2 2 3 4 3 3 3 4
3 10 2 2 2 3 3 3 3 1 2 3 2 2 2 2 3 3 3 2 4 5 5 3 2 3 5 4 2 1 3 3 3 3 3 3 3 2 2 3 3 2 1 2 3 4 4 4 4 3 3 4 4 4
8 3 2 2 3 3 5 2 2 3 2 3 1 1 3 3 3 2 2 4 4 3 2 2 3 2 7 5 3 4 3 3 1 1 1 1 1 1 1 2 2 2 1 3 1 1 2 3 3 3 3 3 3 5
5 4 5 5 6 4 2 2 3 2 1 0 2 3 4 4 1 0 4 3 2 3 3 6 6 4 2 2 3 3 2 1 1 1 1 1 0 1 1 1 1 2 1 2 2 2 3 4 5 4 4 3 4 5
5 6 5 5 4 4 5 2 2 2 4 5 2 4 4 2 2 3 5 4 4 4 3 3 3 2 3 3 1 2 2 2 2 2 2 1 1 2 2 1 2 2 1 1 3 5 7 5 5 6 7 5 7 8
7 9 11 10 5 7 7 6 7 7 4 3 6 4 2 3 0 7 4 3 3 4 6 7 6 3 3 4 3 3 3 2 2 2 3 2 2 3 3 2 2 4 1 1 2 7 11 9 10 11 9 8 9 9
7 8 5 3 4 4 2 1 3 4 6 7 4 3 3 3 6 6 2 3 4 4 6 7 5 4 3 2 2 2 2 3 3 2 1 1 2 2 3 3 4 4 2 2 3 4 9 10 11 11 12 10 8 7
6 7 10 9 4 3 5 4 7 8 6 4 4 4 8 9 7 5 5 3 4 4 4 3 2 2 2 2 3 4 2 1 2 2 2 2 3 2 2 2 2 6 6 5 6 6 8 10 11 12 13 13 11 9
6 5 6 7 3 4 7 8 8 6 5 6 7 6 6 5 4 3 3 3 4 5 4 3 0 2 3 3 3 2 3 4 4 2 3 4 4 5 2 3 4 4 5 7 10 11 13 11 12 12 14 12 12 11
5 7 6 8 7 10 7 7 5 3 3 4 3 1 2 2 2 1 3 5 5 6 4 4 4 5 4 5 3 2 1 3 4 5 4 4 5 4 3 4 5 5 4 5 8 10 12 11 11 11 10 10 10 10
7 6 5 5 5 4 3 2 1 2 3 1 2 3 3 2 4 2 0 1 3 4 5 3 1 1 5 4 4 3 3 2 4 5 4 3 3 4 5 5 5 5 7 8 9 10 11 11 11 13 13 14 15 13
4 9 8 5 3 1 2 2 2 2 3 0 2 2 3 3 2 2 1 3 4 2 4 4 4 4 5 2 2 2 3 3 2 3 4 3 5 5 5 5 5 6 8 10 10 10 12 13 12 13 13 16 16 15
3 3 3 4 3 2 1 4 3 3 3 2 2 1 1 1 4 3 2 1 3 4 4 5 3 3 4 6 5 3 4 3 3 4 6 7 7 7 5 5 5 6 9 9 10 10 13 14 13 14 15 15 15 15
Wind_Direction
89 90 91 92 96 100 100 100 102 102 97 96 94 90 88 88 94 84 153 344 109 90 50 52 101 116 95 110 133 163 89 4 66 89 135 183 137 190 141 153 171 150 137 199 86 73 280 208 286 218 257 299 299 290
85 88 90 92 92 89 88 88 87 87 83 80 77 74 75 75 79 94 65 354 27 77 115 65 84 54 109 152 124 36 139 135 159 98 64 96 140 109 138 213 103 195 181 185 174 212 217 198 228 265 272 285 293 289
81 82 84 85 86 85 85 85 84 83 81 78 75 70 66 66 65 89 107 360 60 79 46 42 21 349 39 55 104 113 341 136 72 137 153 146 120 136 150 223 180 253 170 214 68 248 253 280 283 291 291 288 295 296
82 83 84 84 85 85 84 83 82 81 80 77 74 72 71 71 69 71 68 324 71 105 100 8 347 36 352 48 57 75 120 76 105 64 90 117 139 168 194 190 180 192 152 213 257 281 291 258 263 294 305 307 305 307
83 83 83 84 84 83 82 80 80 79 79 78 78 82 81 78 79 80 75 39 50 111 132 116 346 7 19 90 89 88 96 94 69 56 72 189 118 103 77 63 232 178 200 178 226 233 219 286 295 309 305 311 310 309
89 88 86 85 84 83 81 78 76 74 73 71 69 61 48 44 48 54 45 2 15 54 92 89 297 7 23 86 94 100 95 91 90 119 204 267 256 113 135 227 242 213 208 192 251 261 278 280 284 289 314 309 309 307
83 84 85 85 85 85 84 83 81 80 79 76 76 73 68 65 62 59 115 241 356 47 79 68 28 340 349 96 54 67 36 80 106 127 170 159 195 128 159 230 191 222 215 243 231 294 303 294 301 315 306 308 310 309
86 87 86 86 86 87 87 86 86 88 90 89 80 71 67 76 64 34 358 12 68 87 73 97 328 46 1 60 71 31 81 38 352 171 61 147 75 191 243 222 230 235 211 245 246 197 252 284 302 299 309 315 323 327
87 87 88 89 88 88 87 88 89 90 90 77 60 59 46 36 45 302 2 43 51 100 107 85 120 208 354 48 87 37 70 54 255 148 216 121 190 221 219 209 206 200 193 205 252 286 285 290 291 298 322 330 323 323
89 87 87 85 82 78 77 79 86 78 52 47 43 46 31 13 329 9 9 23 16 351 37 89 313 59 85 33 16 71 35 197 194 232 120 215 249 245 216 206 201 170 177 172 165 286 281 287 306 319 308 301 303 308
107 102 97 93 90 88 85 83 64 26 29 34 44 58 262 321 46 30 37 65 331 28 33 107 128 106 337 103 181 187 190 198 224 213 169 228 261 245 213 187 160 163 175 182 189 218 236 241 264 282 299 305 309 310
108 106 103 99 94 94 85 54 49 55 85 115 125 102 55 37 42 77 355 350 43 127 162 128 208 176 194 134 105 199 180 133 246 140 190 252 252 196 152 160 173 170 171 190 197 228 241 251 262 271 284 298 304 311
103 105 105 101 97 99 97 61 54 92 85 43 52 55 53 331 44 97 172 308 22 195 187 147 236 138 161 133 188 164 173 220 134 205 228 224 233 178 189 175 189 190 187 191 215 226 243 266 275 242 283 292 304 310
102 103 104 104 105 99 81 52 46 46 61 62 80 25 110 319 258 186 160 167 222 180 130 120 52 162 167 116 167 137 229 253 259 212 234 241 202 196 202 212 190 206 204 214 227 239 244 252 266 275 263 272 284 297
108 104 96 92 126 113 86 70 48 49 82 89 82 234 218 236 250 245 192 24 250 136 116 61 49 163 182 197 196 151 8 246 205 226 221 226 206 206 219 218 214 220 215 220 211 221 237 247 254 273 274 277 283 294
126 103 78 130 128 120 98 48 33 58 58 68 146 62 269 56 306 346 207 251 196 126 79 74 126 123 239 189 172 205 185 220 243 214 223 186 222 234 243 232 226 223 209 217 218 225 232 233 241 253 285 275 270 262
108 132 179 152 135 115 75 71 45 49 42 340 270 149 159 154 200 212 163 215 146 93 178 132 135 208 112 222 223 189 207 219 206 226 215 200 219 236 245 249 240 227 222 221 222 227 235 238 230 239 273 275 257 266
309 261 172 146 121 112 32 57 64 224 250 230 244 249 204 195 170 238 222 172 127 162 130 222 157 208 209 202 235 243 241 260 241 234 243 269 256 255 251 250 249 220 221 219 217 242 237 241 248 254 244 252 282 295
230 211 159 151 115 99 123 140 243 264 247 206 244 219 210 233 231 196 181 169 182 158 142 159 235 221 229 218 214 249 250 207 256 281 257 284 299 294 294 305 308 327 353 276 267 251 249 250 242 245 248 285 296 281
190 171 146 133 88 95 179 183 204 252 260 237 208 231 211 205 218 191 179 154 153 156 198 222 211 211 192 233 187 183 189 254 255 309 12 41 20 18 13 22 21 358 340 327 300 241 246 264 211 195 8 20 295 296
104 188 159 128 114 110 207 224 218 224 242 230 231 190 248 302 233 197 215 143 155 207 229 219 206 228 190 139 115 124 118 122 134 160 206 263 254 248 269 275 261 238 254 280 293 312 356 3 10 28 9 312 274 264
165 119 157 91 130 166 251 214 224 257 228 247 287 205 271 294 267 231 141 123 214 215 204 183 201 138 133 133 135 156 197 221 228 245 274 296 304 325 11 31 28 19 306 317 6 30 20 5 349 341 328 307 302 303
108 108 137 145 144 216 254 114 197 211 200 260 4 275 274 247 228 136 243 210 236 207 152 109 119 107 130 143 177 227 230 244 249 260 24 10 106 345 338 335 324 294 348 50 29 352 299 305 297 291 287 295 301 305
103 178 174 198 184 228 143 207 218 222 6 200 190 263 252 229 151 3 245 236 220 126 148 149 147 131 140 183 229 209 175 151 144 152 213 224 269 294 40 14 47 116 187 239 260 264 273 272 276 281 270 275 279 275
193 203 194 203 171 148 183 201 229 180 228 207 181 279 260 115 182 244 227 244 173 185 154 140 139 163 172 218 224 157 184 163 198 221 234 183 175 25 351 325 305 284 250 26 315 307 304 289 278 272 277 256 266 281
206 210 195 188 184 174 181 173 197 207 169 197 229 254 42 98 87 253 235 202 201 164 178 183 182 196 239 202 188 184 199 176 130 174 253 188 182 179 205 240 286 297 266 185 266 298 305 304 299 294 284 275 263 265
211 204 188 181 161 150 139 126 150 138 178 202 218 164 129 216 240 250 248 221 190 206 185 179 176 179 204 186 136 136 131 131 163 187 223 270 265 212 150 193 256 248 256 274 252 250 286 293 293 290 287 287 275 250
206 171 168 172 192 161 158 169 177 194 207 195 110 171 190 197 227 224 201 202 180 150 140 134 139 174 151 159 147 129 102 53 55 29 3 0 10 335 326 322 281 306 309 285 274 277 271 274 280 284 284 282 281 271
184 157 132 170 148 181 199 188 201 209 187 157 170 205 225 215 214 176 209 175 145 134 146 170 202 76 66 55 62 75 125 122 98 37 303 277 320 298 271 269 281 282 275 275 273 272 276 276 280 286 290 289 288 286
171 154 167 169 190 208 212 191 207 213 173 177 163 51 355 284 246 247 116 140 162 193 196 158 144 158 172 157 175 319 269 185 163 158 203 250 242 251 261 268 273 273 267 265 282 288 284 284 284 286 284 285 281 277
147 163 152 172 215 220 208 146 81 77 40 76 14 163 219 285 313 348 340 71 108 116 112 121 158 183 139 147 150 141 290 272 214 230 229 248 269 273 273 273 269 270 281 281 284 288 292 294 289 289 288 288 288 287
159 174 163 181 239 276 64 87 117 120 0 261 281 14 12 48 286 283 240 105 89 130 215 147 144 217 206 160 153 187 143 138 170 215 249 257 269 268 276 280 282 280 285 290 288 287 288 288 291 292 294 295 295 296
83 70 60 98 133 153 315 95 41 15 25 1 292 333 296 175 226 256 321 138 169 175 181 198 186 153 169 170 177 152 148 182 223 270 280 268 268 279 284 276 274 278 288 290 291 290 293 297 298 300 300 299 298 297